Location: Gazon
(48.1318°N, 1.2708°W)
Time: 02:27:42
(UTC+00:00)

ARGOS - Pass Details

Date: 18 September 2020
Orbit: 821 x 834 km, 98.4° (Epoch: 29 October)

Event Time Altitude Azimuth Distance (km) Brightness Sun altitude
Rises 19:14:26 0° 163° (SSE) 3,341 6.0 -11.4°
Reaches altitude 10° 19:16:46 10° 163° (SSE) 2,413 5.3 -11.7°
Maximum altitude 19:22:07 87° 73° (ENE) 831 3.1 -12.6°
Drops below altitude 10° 19:27:32 10° 346° (NNW) 2,437 6.0 -13.5°
Sets 19:29:54 0° 347° (NNW) 3,376 6.8 -13.8°
